Location: Buckland
(65.9785°N, 161.1281°W)
Time: 18:44:30
(UTC+00:00)

Vanguard 2 Rocket - Pass Details

Date: 01 December 2020
Orbit: 554 x 3326 km, 32.9° (Epoch: 14 January)

Event Time Altitude Azimuth Distance (km) Brightness Sun altitude
Rises 17:05:19 0° 193° (SSW) 7,149 11.5 -16.8°
Reaches altitude 10° 17:15:06 10° 169° (S) 6,284 11.5 -15.9°
Maximum altitude 17:21:08 12° 152° (SSE) 6,031 11.7 -15.3°
Drops below altitude 10° 17:26:59 10° 134° (SE) 6,052 12.2 -14.8°
Sets 17:35:46 0° 109° (ESE) 6,604 13.3 -13.9°
